Location: Budapest
(47.4979°N, 19.0402°E)
Time: 04:27:02
(UTC+02:00)

Envisat - Visible Passes

Search period start: 22 September 2020 00:00
Search period end: 02 October 2020 00:00
Orbit: 764 x 766 km, 98.1° (Epoch: 21 September)

Date Brightness Start Highest point End Pass type
(mag) Time Alt. Az. Time Alt. Az. Time Alt. Az.
22 Sep 6.0 05:42:24 10° NE 05:45:59 19° E 05:49:32 10° SE visible
24 Sep 6.0 19:05:11 10° SW 19:08:59 21° W 19:12:50 10° NW visible
25 Sep 6.2 05:31:33 10° NE 05:34:28 15° E 05:37:24 10° ESE visible
26 Sep 6.5 19:32:39 10° WSW 19:34:46 12° W 19:36:53 10° WNW visible
27 Sep 5.7 05:56:01 10° NE 06:00:13 25° E 06:04:23 10° SSE visible
28 Sep 6.5 05:21:01 10° ENE 05:22:58 12° E 05:24:54 10° ESE visible
29 Sep 6.2 19:20:13 10° SW 19:23:15 16° W 19:26:17 10° NW visible
30 Sep 6.0 05:44:58 10° NE 05:48:44 21° E 05:52:29 10° SE visible
